Wetter

Ora Tempo Temperatura Umidità Vento Precipitazioni
12:00 Klarer Himmel 10.0° 53% 1.63 km/h 0 mm
15:00 Klarer Himmel 10.2° 56% 1.05 km/h 0 mm
18:00 Mäßig bewölkt 9.1° 60% 1.89 km/h 0 mm
21:00 Überwiegend bewölkt 7.5° 56% 2.41 km/h 0 mm
Ora Tempo Temperatura Umidità Vento Precipitazioni
00:00 Überwiegend bewölkt 7.0° 54% 2.95 km/h 0 mm
03:00 Bedeckt 7.7° 52% 4.58 km/h 0 mm
06:00 Leichter Regen 8.6° 71% 4.72 km/h 0.33 mm
09:00 Mäßiger Regen 11.0° 89% 8.65 km/h 7.15 mm
12:00 Mäßiger Regen 14.5° 84% 11.16 km/h 5.36 mm
15:00 Leichter Regen 15.0° 84% 14.84 km/h 1.32 mm
18:00 Leichter Regen 13.0° 68% 11.29 km/h 1.84 mm
21:00 Leichter Regen 10.8° 71% 6.89 km/h 1.87 mm
Ora Tempo Temperatura Umidità Vento Precipitazioni
00:00 Leichter Regen 9.6° 72% 1.37 km/h 1.85 mm
03:00 Leichter Regen 8.3° 83% 4 km/h 0.83 mm
06:00 Leichter Regen 9.8° 70% 2.61 km/h 1.82 mm
09:00 Mäßiger Regen 9.5° 72% 0.76 km/h 5.77 mm
12:00 Leichter Regen 10.5° 66% 5.24 km/h 1.33 mm
15:00 Leichter Regen 9.7° 68% 5.79 km/h 0.93 mm
18:00 Überwiegend bewölkt 8.1° 73% 4.88 km/h 0 mm
21:00 Ein paar Wolken 7.0° 78% 3.09 km/h 0 mm
Ora Tempo Temperatura Umidità Vento Precipitazioni
00:00 Klarer Himmel 6.3° 80% 2.32 km/h 0 mm
03:00 Klarer Himmel 5.6° 83% 2.37 km/h 0 mm
06:00 Ein paar Wolken 5.4° 82% 2.34 km/h 0 mm
09:00 Überwiegend bewölkt 7.0° 74% 2.87 km/h 0 mm
12:00 Überwiegend bewölkt 9.0° 70% 2.7 km/h 0 mm
15:00 Bedeckt 10.9° 68% 5.14 km/h 0 mm
18:00 Leichter Regen 9.1° 81% 0.35 km/h 1.59 mm
21:00 Leichter Regen 8.0° 88% 2.22 km/h 0.71 mm
Ora Tempo Temperatura Umidità Vento Precipitazioni
00:00 Leichter Regen 9.6° 76% 7.3 km/h 2.13 mm
03:00 Überwiegend bewölkt 8.0° 81% 6.87 km/h 0 mm
06:00 Mäßig bewölkt 6.2° 87% 3.33 km/h 0 mm
09:00 Bedeckt 6.2° 90% 6.12 km/h 0 mm
12:00 Bedeckt 7.9° 72% 7.31 km/h 0 mm
15:00 Bedeckt 7.7° 74% 12.31 km/h 0 mm
18:00 Bedeckt 6.6° 71% 9.53 km/h 0 mm
21:00 Überwiegend bewölkt 7.0° 66% 8.5 km/h 0 mm
Ora Tempo Temperatura Umidità Vento Precipitazioni
00:00 Überwiegend bewölkt 7.2° 60% 7.37 km/h 0 mm
03:00 Überwiegend bewölkt 7.4° 55% 6.12 km/h 0 mm
06:00 Überwiegend bewölkt 6.2° 60% 5.56 km/h 0 mm
09:00 Klarer Himmel 7.5° 57% 4.67 km/h 0 mm
Dienstag 07 Dezember
Temp. max: 10.4°
Temp. min: 7.5°
Ora Tempo Temperatura Umidità Vento Precipitazioni
12:00 Klarer Himmel 10.0° 53% 1.63 km/h 0 mm
15:00 Klarer Himmel 10.2° 56% 1.05 km/h 0 mm
18:00 Mäßig bewölkt 9.1° 60% 1.89 km/h 0 mm
21:00 Überwiegend bewölkt 7.5° 56% 2.41 km/h 0 mm
Mittwoch 08 Dezember
Temp. max: 15.0°
Temp. min: 7.0°
Ora Tempo Temperatura Umidità Vento Precipitazioni
00:00 Überwiegend bewölkt 7.0° 54% 2.95 km/h 0 mm
03:00 Bedeckt 7.7° 52% 4.58 km/h 0 mm
06:00 Leichter Regen 8.6° 71% 4.72 km/h 0.33 mm
09:00 Mäßiger Regen 11.0° 89% 8.65 km/h 7.15 mm
12:00 Mäßiger Regen 14.5° 84% 11.16 km/h 5.36 mm
15:00 Leichter Regen 15.0° 84% 14.84 km/h 1.32 mm
18:00 Leichter Regen 13.0° 68% 11.29 km/h 1.84 mm
21:00 Leichter Regen 10.8° 71% 6.89 km/h 1.87 mm
Donnerstag 09 Dezember
Temp. max: 10.5°
Temp. min: 7.0°
Ora Tempo Temperatura Umidità Vento Precipitazioni
00:00 Leichter Regen 9.6° 72% 1.37 km/h 1.85 mm
03:00 Leichter Regen 8.3° 83% 4 km/h 0.83 mm
06:00 Leichter Regen 9.8° 70% 2.61 km/h 1.82 mm
09:00 Mäßiger Regen 9.5° 72% 0.76 km/h 5.77 mm
12:00 Leichter Regen 10.5° 66% 5.24 km/h 1.33 mm
15:00 Leichter Regen 9.7° 68% 5.79 km/h 0.93 mm
18:00 Überwiegend bewölkt 8.1° 73% 4.88 km/h 0 mm
21:00 Ein paar Wolken 7.0° 78% 3.09 km/h 0 mm
Freitag 10 Dezember
Temp. max: 10.9°
Temp. min: 5.4°
Ora Tempo Temperatura Umidità Vento Precipitazioni
00:00 Klarer Himmel 6.3° 80% 2.32 km/h 0 mm
03:00 Klarer Himmel 5.6° 83% 2.37 km/h 0 mm
06:00 Ein paar Wolken 5.4° 82% 2.34 km/h 0 mm
09:00 Überwiegend bewölkt 7.0° 74% 2.87 km/h 0 mm
12:00 Überwiegend bewölkt 9.0° 70% 2.7 km/h 0 mm
15:00 Bedeckt 10.9° 68% 5.14 km/h 0 mm
18:00 Leichter Regen 9.1° 81% 0.35 km/h 1.59 mm
21:00 Leichter Regen 8.0° 88% 2.22 km/h 0.71 mm
Samstag 11 Dezember
Temp. max: 9.6°
Temp. min: 6.2°
Ora Tempo Temperatura Umidità Vento Precipitazioni
00:00 Leichter Regen 9.6° 76% 7.3 km/h 2.13 mm
03:00 Überwiegend bewölkt 8.0° 81% 6.87 km/h 0 mm
06:00 Mäßig bewölkt 6.2° 87% 3.33 km/h 0 mm
09:00 Bedeckt 6.2° 90% 6.12 km/h 0 mm
12:00 Bedeckt 7.9° 72% 7.31 km/h 0 mm
15:00 Bedeckt 7.7° 74% 12.31 km/h 0 mm
18:00 Bedeckt 6.6° 71% 9.53 km/h 0 mm
21:00 Überwiegend bewölkt 7.0° 66% 8.5 km/h 0 mm
Sonntag 12 Dezember
Temp. max: 7.5°
Temp. min: 6.2°
Ora Tempo Temperatura Umidità Vento Precipitazioni
00:00 Überwiegend bewölkt 7.2° 60% 7.37 km/h 0 mm
03:00 Überwiegend bewölkt 7.4° 55% 6.12 km/h 0 mm
06:00 Überwiegend bewölkt 6.2° 60% 5.56 km/h 0 mm
09:00 Klarer Himmel 7.5° 57% 4.67 km/h 0 mm

Live Cam

VUOI RICEVERE PIÚ INFORMAZIONI SUI NOSTRI SERVIZI?

Usa la form di contatti sul sito o contattaci telefonicamente